• In Hungary
  • List of Countries
  • For 7 days
  • Water Temperature
  • Satellite Maps
  • Weather Map
  • News
  • Weather Widgets
  • user-avatar
    Login

    Hourly Weather San Gregorio de Polanco

    Today, 18 February, Sunday

    Time Temperature Precipitation Wind Pressure Humidity
    00:00 +23°C° 0 mm 4 mps 752 mmHg 67%
    01:00 +22°C° 0 mm 4 mps 752 mmHg 70%
    02:00 +22°C° 0 mm 4 mps 751 mmHg 73%
    03:00 +21°C° 0 mm 4 mps 751 mmHg 75%
    04:00 +21°C° 0 mm 4 mps 751 mmHg 77%
    05:00 +21°C° 0 mm 3 mps 751 mmHg 78%
    06:00 +22°C° 0 mm 4 mps 751 mmHg 73%
    07:00 +25°C° 0 mm 4 mps 751 mmHg 67%
    08:00 +28°C° 0 mm 4 mps 751 mmHg 62%
    09:00 +30°C° 0 mm 4 mps 751 mmHg 55%
    10:00 +33°C° 0 mm 3 mps 750 mmHg 49%
    11:00 +35°C° 0 mm 3 mps 750 mmHg 43%
    12:00 +36°C° 0 mm 3 mps 749 mmHg 41%
    13:00 +36°C° 0 mm 2 mps 749 mmHg 38%
    14:00 +37°C° 0 mm 2 mps 748 mmHg 35%
    15:00 +36°C° 0 mm 2 mps 748 mmHg 36%
    16:00 +36°C° 0 mm 2 mps 747 mmHg 37%
    17:00 +36°C° 0 mm 2 mps 747 mmHg 38%
    18:00 +34°C° 0 mm 3 mps 747 mmHg 41%
    19:00 +31°C° 0 mm 3 mps 747 mmHg 45%
    20:00 +30°C° 0 mm 3 mps 747 mmHg 48%
    21:00 +29°C° 0 mm 4 mps 747 mmHg 49%
    22:00 +29°C° 0 mm 4 mps 747 mmHg 50%
    23:00 +29°C° 0 mm 5 mps 748 mmHg 51%

    Tomorrow, 19 February, Monday

    Time Temperature Precipitation Wind Pressure Humidity
    00:00 +28°C° 0 mm 4 mps 747 mmHg 55%
    01:00 +27°C° 0 mm 4 mps 747 mmHg 58%
    02:00 +26°C° 0 mm 4 mps 747 mmHg 62%
    03:00 +26°C° 0 mm 4 mps 747 mmHg 64%
    04:00 +25°C° 0 mm 3 mps 747 mmHg 67%
    05:00 +25°C° 0 mm 3 mps 747 mmHg 69%
    06:00 +26°C° 0 mm 3 mps 747 mmHg 66%
    07:00 +28°C° 0 mm 3 mps 748 mmHg 62%
    08:00 +29°C° 0 mm 3 mps 748 mmHg 58%
    09:00 +31°C° 0 mm 3 mps 748 mmHg 52%
    10:00 +34°C° 0 mm 2 mps 748 mmHg 46%
    11:00 +36°C° 0 mm 2 mps 747 mmHg 39%
    12:00 +36°C° 0 mm 2 mps 747 mmHg 38%
    13:00 +36°C° 0 mm 2 mps 746 mmHg 37%
    14:00 +36°C° 0 mm 2 mps 746 mmHg 36%
    15:00 +36°C° 0 mm 2 mps 745 mmHg 37%
    16:00 +36°C° 0 mm 3 mps 745 mmHg 38%
    17:00 +35°C° 0 mm 3 mps 745 mmHg 39%
    18:00 +33°C° 0.2 mm 3 mps 746 mmHg 45%
    19:00 +30°C° 0.2 mm 2 mps 746 mmHg 52%
    20:00 +28°C° 0.2 mm 2 mps 746 mmHg 58%
    21:00 +28°C° 0 mm 2 mps 747 mmHg 59%
    22:00 +27°C° 0 mm 2 mps 747 mmHg 60%
    23:00 +27°C° 0 mm 2 mps 747 mmHg 62%

    Day after tomorrow, 20 February, Tuesday

    Time Temperature Precipitation Wind Pressure Humidity
    00:00 +26°C° 0 mm 2 mps 747 mmHg 65%
    01:00 +26°C° 0 mm 2 mps 747 mmHg 67%
    02:00 +25°C° 0 mm 2 mps 747 mmHg 70%
    03:00 +25°C° 0.2 mm 2 mps 747 mmHg 73%
    04:00 +24°C° 0.2 mm 2 mps 747 mmHg 76%
    05:00 +24°C° 0.2 mm 1 mps 747 mmHg 79%
    06:00 +25°C° 0.3 mm 1 mps 747 mmHg 76%
    07:00 +26°C° 0.3 mm 1 mps 748 mmHg 73%
    08:00 +27°C° 0.3 mm 1 mps 748 mmHg 70%
    09:00 +29°C° 0.1 mm 1 mps 748 mmHg 62%
    10:00 +31°C° 0.1 mm 1 mps 748 mmHg 55%
    11:00 +33°C° 0.1 mm 1 mps 748 mmHg 48%
    12:00 +33°C° 0.1 mm 1 mps 748 mmHg 45%
    13:00 +35°C° 0.1 mm 2 mps 747 mmHg 42%
    14:00 +35°C° 0.1 mm 2 mps 747 mmHg 39%
    15:00 +35°C° 0.3 mm 3 mps 747 mmHg 42%
    16:00 +34°C° 0.3 mm 3 mps 747 mmHg 46%
    17:00 +33°C° 0.3 mm 3 mps 746 mmHg 49%
    18:00 +30°C° 4 mm 4 mps 747 mmHg 59%
    19:00 +28°C° 4 mm 5 mps 748 mmHg 70%
    20:00 +26°C° 4 mm 6 mps 749 mmHg 80%
    21:00 +25°C° 3.5 mm 5 mps 749 mmHg 83%
    22:00 +25°C° 3.5 mm 4 mps 750 mmHg 86%
    23:00 +24°C° 3.5 mm 2 mps 751 mmHg 89%

    21 February, Wednesday

    Time Temperature Precipitation Wind Pressure Humidity
    00:00 +24°C° 0.5 mm 3 mps 750 mmHg 90%
    01:00 +24°C° 0.5 mm 3 mps 750 mmHg 91%
    02:00 +22°C° 0.5 mm 3 mps 750 mmHg 92%
    03:00 +22°C° 0 mm 4 mps 750 mmHg 92%
    04:00 +22°C° 0 mm 4 mps 750 mmHg 92%
    05:00 +21°C° 0 mm 5 mps 750 mmHg 93%
    06:00 +22°C° 0 mm 6 mps 751 mmHg 88%
    07:00 +23°C° 0 mm 6 mps 752 mmHg 84%
    08:00 +23°C° 0 mm 7 mps 752 mmHg 79%
    09:00 +24°C° 0 mm 7 mps 752 mmHg 74%
    10:00 +26°C° 0 mm 7 mps 752 mmHg 69%
    11:00 +27°C° 0 mm 7 mps 752 mmHg 64%
    12:00 +28°C° 0 mm 7 mps 752 mmHg 55%
    13:00 +29°C° 0 mm 7 mps 752 mmHg 46%
    14:00 +32°C° 0 mm 7 mps 751 mmHg 38%
    15:00 +30°C° 0 mm 6 mps 751 mmHg 39%
    16:00 +30°C° 0 mm 6 mps 751 mmHg 39%
    17:00 +29°C° 0 mm 6 mps 751 mmHg 40%
    18:00 +27°C° 0 mm 6 mps 752 mmHg 46%
    19:00 +24°C° 0 mm 6 mps 752 mmHg 51%
    20:00 +22°C° 0 mm 6 mps 753 mmHg 56%
    21:00 +21°C° 0 mm 5 mps 753 mmHg 64%
    22:00 +20°C° 0 mm 5 mps 753 mmHg 71%
    23:00 +19°C° 0 mm 4 mps 753 mmHg 79%

    22 February, Thursday

    Time Temperature Precipitation Wind Pressure Humidity
    00:00 +18°C° 0 mm 4 mps 753 mmHg 83%
    01:00 +18°C° 0 mm 3 mps 753 mmHg 87%
    02:00 +17°C° 0 mm 3 mps 752 mmHg 92%
    03:00 +17°C° 0 mm 3 mps 753 mmHg 92%
    04:00 +16°C° 0 mm 2 mps 753 mmHg 93%
    05:00 +16°C° 0 mm 2 mps 753 mmHg 94%
    06:00 +18°C° 0 mm 2 mps 753 mmHg 86%
    07:00 +19°C° 0 mm 3 mps 754 mmHg 78%
    08:00 +21°C° 0 mm 3 mps 754 mmHg 71%
    09:00 +24°C° 0 mm 3 mps 754 mmHg 62%
    10:00 +25°C° 0 mm 2 mps 754 mmHg 54%
    11:00 +27°C° 0 mm 2 mps 754 mmHg 46%
    12:00 +28°C° 0 mm 2 mps 753 mmHg 42%
    13:00 +29°C° 0 mm 3 mps 753 mmHg 38%
    14:00 +30°C° 0 mm 3 mps 753 mmHg 35%
    15:00 +30°C° 0 mm 3 mps 752 mmHg 36%
    16:00 +30°C° 0 mm 2 mps 752 mmHg 37%
    17:00 +29°C° 0 mm 2 mps 752 mmHg 39%
    18:00 +27°C° 0 mm 2 mps 752 mmHg 43%
    19:00 +25°C° 0 mm 2 mps 753 mmHg 48%
    20:00 +23°C° 0 mm 2 mps 753 mmHg 53%
    21:00 +22°C° 0 mm 3 mps 753 mmHg 58%
    22:00 +21°C° 0 mm 4 mps 753 mmHg 63%
    23:00 +20°C° 0 mm 5 mps 753 mmHg 68%

    23 February, Friday

    Time Temperature Precipitation Wind Pressure Humidity
    00:00 +19°C° 0 mm 4 mps 753 mmHg 74%
    01:00 +18°C° 0 mm 4 mps 753 mmHg 79%
    02:00 +17°C° 0 mm 3 mps 753 mmHg 85%
    03:00 +17°C° 0 mm 3 mps 753 mmHg 87%
    04:00 +17°C° 0 mm 3 mps 754 mmHg 89%
    05:00 +16°C° 0 mm 2 mps 754 mmHg 91%
    06:00 +18°C° 0 mm 3 mps 754 mmHg 84%
    07:00 +20°C° 0 mm 3 mps 755 mmHg 76%
    08:00 +22°C° 0 mm 4 mps 755 mmHg 69%
    09:00 +25°C° 0 mm 3 mps 755 mmHg 61%
    10:00 +27°C° 0 mm 3 mps 754 mmHg 53%
    11:00 +29°C° 0 mm 2 mps 754 mmHg 46%
    12:00 +30°C° 0 mm 2 mps 753 mmHg 41%
    13:00 +31°C° 0 mm 1 mps 753 mmHg 37%
    14:00 +32°C° 0 mm 1 mps 752 mmHg 33%
    15:00 +31°C° 0 mm 1 mps 752 mmHg 34%
    16:00 +31°C° 0 mm 2 mps 752 mmHg 35%
    17:00 +31°C° 0 mm 2 mps 751 mmHg 36%
    18:00 +29°C° 0 mm 3 mps 752 mmHg 40%
    19:00 +27°C° 0 mm 3 mps 752 mmHg 44%
    20:00 +25°C° 0 mm 3 mps 752 mmHg 48%
    21:00 +23°C° 0 mm 4 mps 752 mmHg 49%
    22:00 +23°C° 0 mm 4 mps 752 mmHg 50%
    23:00 +22°C° 0 mm 4 mps 752 mmHg 51%
    Show more